EW8735 Weather Reports


time (UTC)temp
F
wind
direction
speed
knots
gust
knots
rain 1hr
in
rain 24hr
in
rain mn
in
humidity
%
barometer
mb
20260510224511 72 309 0.0 0.0 0.00 0.00 0.00 39 1011.7
20260510223010 71 359 0.0 0.0 0.00 0.00 0.00 44 1011.8
20260510221510 73 341 0.0 0.0 0.00 0.00 0.00 38 1011.8
20260510220009 73 341 0.0 0.0 0.00 0.00 0.00 43 1012.0
20260510214509 72 349 0.0 0.0 0.00 0.00 0.00 41 1011.9
20260510213020 72 349 0.0 0.0 0.00 0.00 0.00 41 1011.8
20260510211517 71 308 0.0 0.0 0.00 0.00 0.00 40 1011.5
20260510210020 71 354 0.0 0.0 0.00 0.00 0.00 39 1011.8
20260510204508 71 247 0.0 0.0 0.00 0.00 0.00 45 1011.9
20260510203006 72 228 0.0 0.0 0.00 0.00 0.00 44 1011.7
20260510201505 72 320 0.0 0.0 0.00 0.00 0.00 43 1011.5
20260510200005 71 296 0.0 0.0 0.00 0.00 0.00 44 1011.2
20260510194507 73 290 0.0 0.0 0.00 0.00 0.00 40 1011.6
20260510193005 72 290 0.0 0.0 0.00 0.00 0.00 43 1011.8
20260510191601 71 285 0.0 0.0 0.00 0.00 0.00 43 1011.7
20260510190059 70 285 0.0 0.0 0.00 0.00 0.00 45 1011.6
20260510184557 69 295 0.0 0.0 0.00 0.00 0.00 47 1011.3
20260510183102 68 320 0.0 0.0 0.00 0.00 0.00 46 1011.2
20260510181620 68 320 0.0 0.0 0.00 0.00 0.00 49 1011.6
20260510180103 69 320 0.0 0.0 0.00 0.00 0.00 43 1011.3
20260510174557 68 289 0.0 0.0 0.00 0.00 0.00 47 1011.7
20260510173048 66 359 0.0 0.0 0.00 0.00 0.00 51 1011.9
20260510171547 66 359 0.0 0.0 0.00 0.00 0.00 52 1011.3
20260510170047 67 15 0.0 0.0 0.00 0.00 0.00 48 1011.5
20260510164547 66 16 0.0 0.0 0.00 0.00 0.00 50 1011.7
20260510163053 66 28 0.0 0.0 0.00 0.00 0.00 49 1011.9
20260510161546 67 28 0.0 0.0 0.00 0.00 0.00 48 1011.8
20260510160043 65 29 0.0 0.0 0.00 0.00 0.00 49 1012.0
20260510154538 63 29 0.0 0.0 0.00 0.00 0.00 52 1011.9
20260510153037 63 35 0.0 0.0 0.00 0.00 0.00 54 1012.3
20260510151533 62 35 0.0 0.0 0.00 0.00 0.00 57 1012.4
20260510150030 60 35 0.0 0.0 0.00 0.00 0.00 62 1012.3
20260510144527 60 34 0.0 0.0 0.00 0.00 0.00 63 1012.3
20260510143023 57 34 0.0 0.0 0.00 0.00 0.00 70 1012.1
20260510141520 55 34 0.0 0.0 0.00 0.00 0.00 74 1012.2
20260510140014 52 34 0.0 0.0 0.00 0.00 0.00 79 1012.0
20260510134514 50 34 0.0 0.0 0.00 0.00 0.00 82 1011.8
20260510133013 48 34 0.0 0.0 0.00 0.00 0.00 84 1011.7
20260510131513 46 34 0.0 0.0 0.00 0.00 0.00 84 1011.4
20260510130011 46 34 0.0 0.0 0.00 0.00 0.00 81 1011.6
20260510124510 46 55 0.0 0.0 0.00 0.00 0.00 80 1011.5
20260510123010 46 49 0.0 0.0 0.00 0.00 0.00 80 1011.5
20260510121507 46 49 0.0 0.0 0.00 0.00 0.00 79 1011.4
20260510120008 47 50 0.0 0.0 0.00 0.00 0.00 79 1011.3
20260510114509 47 49 0.0 0.0 0.00 0.00 0.00 79 1011.4
20260510113004 47 49 0.0 0.0 0.00 0.00 0.00 80 1011.3
20260510111504 47 49 0.0 0.0 0.00 0.00 0.00 80 1011.3
20260510110006 47 49 0.0 0.0 0.00 0.00 0.00 80 1011.4
20260510104502 47 50 0.0 0.0 0.00 0.00 0.00 80 1011.3
20260510103100 47 49 0.0 0.0 0.00 0.00 0.00 80 1011.5
20260510101604 48 49 0.0 0.0 0.00 0.00 0.00 77 1011.7
20260510100127 49 49 0.0 0.0 0.00 0.00 0.00 76 1011.8
20260510094558 49 49 0.0 0.0 0.00 0.00 0.00 75 1011.8
20260510093100 49 49 0.0 0.0 0.00 0.00 0.00 76 1011.8
20260510091556 49 49 0.0 0.0 0.00 0.00 0.00 77 1011.8
20260510090051 48 49 0.0 0.0 0.00 0.00 0.00 79 1012.1
20260510084549 49 48 0.0 0.0 0.00 0.00 0.00 78 1012.3
20260510083054 49 49 0.0 0.0 0.00 0.00 0.00 77 1012.4
20260510081547 50 49 0.0 0.0 0.00 0.00 0.00 75 1012.4
20260510080044 50 49 0.0 0.0 0.00 0.00 0.00 75 1012.4
20260510074543 50 48 0.0 0.0 0.00 0.00 0.00 74 1012.4
20260510073041 50 49 0.0 0.0 0.00 0.00 0.00 74 1012.5
20260510071551 51 49 0.0 0.0 0.00 0.00 0.00 74 1012.4
20260510070035 52 49 0.0 0.0 0.00 0.00 0.00 73 1012.4
20260510064534 51 50 0.0 0.0 0.00 0.00 0.00 74 1012.4
20260510063035 51 50 0.0 0.0 0.00 0.00 0.00 72 1012.4
20260510061544 52 49 0.0 0.0 0.00 0.00 0.00 69 1012.5
20260510060032 53 49 0.0 0.0 0.00 0.00 0.00 66 1012.5
20260510054532 54 49 0.0 0.0 0.00 0.00 0.00 66 1012.6
20260510053030 54 49 0.0 0.0 0.00 0.00 0.00 66 1012.9
20260510051528 55 49 0.0 0.0 0.00 0.00 0.00 65 1013.0
20260510050026 58 49 0.0 0.0 0.00 0.00 0.00 60 1013.1
20260510044526 58 49 0.0 0.0 0.00 0.00 0.00 58 1013.1
20260510043025 59 49 0.0 0.0 0.00 0.00 0.00 57 1013.2
20260510041524 60 49 0.0 0.0 0.00 0.00 0.00 57 1013.2
20260510040024 60 49 0.0 0.0 0.00 0.00 0.00 59 1013.3
20260510034523 61 49 0.0 0.0 0.00 0.00 0.00 57 1013.3
20260510033022 63 48 0.0 0.0 0.00 0.00 0.00 50 1013.2
20260510031537 65 49 0.0 0.0 0.00 0.00 0.00 49 1013.2
20260510030024 65 49 0.0 0.0 0.00 0.00 0.00 48 1013.1
20260510024533 67 49 0.0 0.0 0.00 0.00 0.00 47 1013.1
20260510023018 68 49 0.0 0.0 0.00 0.00 0.00 47 1013.1
20260510021521 70 49 0.0 0.0 0.00 0.00 0.00 44 1013.3
20260510020015 70 49 0.0 0.0 0.00 0.00 0.00 43 1013.3
20260510014513 71 49 0.0 0.0 0.00 0.00 0.00 42 1013.5
20260510013012 72 49 0.0 0.0 0.00 0.00 0.00 39 1013.5
20260510011510 72 49 0.0 0.0 0.00 0.00 0.00 39 1013.7
20260510010008 73 48 0.0 0.0 0.00 0.00 0.00 39 1013.8
20260510004507 74 49 0.0 0.0 0.00 0.00 0.00 36 1013.8
20260510003018 76 49 0.0 0.0 0.00 0.00 0.00 31 1013.9
20260510001504 75 48 0.0 0.0 0.00 0.00 0.00 30 1014.0
20260510000002 75 48 0.0 0.0 0.00 0.00 0.00 30 1014.1
20260509234503 76 48 0.0 0.0 0.00 0.00 0.00 30 1014.2
20260509233059 76 45 0.0 0.0 0.00 0.00 0.00 31 1014.3
20260509231557 75 39 0.0 0.0 0.00 0.00 0.00 33 1014.5
20260509230100 75 41 0.0 0.0 0.00 0.00 0.00 31 1014.6